2024-247W

Last updated on Tue Jan 21 2025 00:02:04 GMT+0000 (Coordinated Universal Time)

1 62397U 24247W 25020.55803030 .00038581 00000+0 17023-2 0 9998 2 62397 44.9950 198.5395 0003291 191.1120 168.9689 15.21198068 4721
UTC large
Height (km)
Speed (km/s)
/
Latitude / Longitude
Inclination (degrees)
Orbital Period (minutes)
Azimuth
Elevation
Range (km)
Doppler Factor

Next 0 passes for location: London (51.5072 / 0.1276)

Sorry there are no passes over London.